Location: Shepherdstown, WV
(39.4326°N, 77.8042°W)
Time: 05:46:55
(UTC-04:00)

Vanguard 3 - Pass Details

Date: 03 August 2021
Orbit: 510 x 3260 km, 33.3° (Epoch: 21 September)

Event Time Altitude Azimuth Distance (km) Brightness Sun altitude
Rises 15:38:34 0° 194° (SSW) 4,347 11.2 52.2°
Reaches altitude 10° 15:41:56 10° 179° (S) 3,769 10.9 51.7°
Maximum altitude 15:49:29 23° 132° (SE) 3,645 10.5 50.3°
Drops below altitude 10° 16:00:02 10° 89° (E) 5,482 11.1 48.4°
Sets 16:06:22 0° 78° (ENE) 6,879 11.5 47.3°
